CW9343 Weather Reports


Display with metric or nautical units.
time (UTC)temp
F
wind
direction
speed
MPH
gust
MPH
rain 1hr
in
rain 24hr
in
rain mn
in
humidity
%
barometer
mb
20180919151356 81 17 3.0 5.0 0.00 0.02 0.00 82 1012.2
20180919150356 80 325 3.0 4.0 0.00 0.02 0.00 81 1012.2
20180919145356 80 310 3.0 9.0 0.00 0.02 0.00 81 1012.3
20180919143355 79 335 3.0 9.0 0.00 0.02 0.00 84 1012.2
20180919141355 79 319 3.0 7.0 0.00 0.02 0.00 84 1012.1
20180919135355 78 314 3.0 10.0 0.00 0.02 0.00 85 1011.8
20180919134357 78 332 3.0 10.0 0.00 0.02 0.00 86 1011.7
20180919133355 77 121 3.0 6.0 0.00 0.02 0.00 87 1011.6
20180919132355 77 294 3.0 5.0 0.00 0.02 0.00 88 1011.5
20180919130355 76 296 3.0 5.0 0.00 0.02 0.00 89 1011.4
20180919125356 76 303 3.0 6.0 0.00 0.02 0.00 90 1011.3
20180919123356 75 350 3.0 6.0 0.00 0.02 0.00 92 1011.2
20180919122356 74 256 3.0 6.0 0.00 0.02 0.00 93 1011.1
20180919120356 73 337 3.0 4.0 0.00 0.02 0.00 93 1011.0
20180919112356 73 301 3.0 4.0 0.00 0.02 0.00 93 1010.5
20180919102356 73 293 3.0 4.0 0.00 0.02 0.00 91 1010.1
20180919094356 74 291 3.0 9.0 0.00 0.02 0.00 90 1010.0
20180919093356 74 316 3.0 9.0 0.00 0.02 0.00 90 1009.9
20180919091356 74 321 3.0 5.0 0.00 0.02 0.00 90 1009.6
20180919090356 74 305 3.0 4.0 0.00 0.02 0.00 90 1009.5
20180919085356 74 320 3.0 6.0 0.00 0.02 0.00 91 1009.5
20180919084356 74 303 3.0 6.0 0.00 0.02 0.00 91 1009.4
20180919083356 74 291 3.0 6.0 0.00 0.02 0.00 91 1009.4
20180919075356 74 290 3.0 7.0 0.00 0.02 0.00 94 1009.2
20180919074356 73 328 3.0 4.0 0.00 0.02 0.00 95 1009.1
20180919070356 73 245 3.0 4.0 0.00 0.02 0.00 97 1009.1
20180919065356 73 318 3.0 4.0 0.00 0.02 0.00 97 1009.0
20180919064356 73 287 3.0 4.0 0.00 0.02 0.00 97 1009.0
20180919063356 73 292 3.0 4.0 0.00 0.02 0.00 97 1008.9
20180919062356 74 243 3.0 4.0 0.00 0.02 0.00 97 1008.9
20180919061356 74 304 3.0 4.0 0.00 0.02 0.00 96 1008.9
20180919055356 74 265 3.0 4.0 0.00 0.02 0.00 96 1008.9
20180919053356 74 293 3.0 4.0 0.00 0.02 0.00 95 1009.0
20180919052356 74 276 3.0 4.0 0.00 0.02 0.00 95 1009.0
20180919051356 74 283 3.0 4.0 0.00 0.02 0.00 95 1009.0
20180919050356 74 291 3.0 4.0 0.00 0.02 0.00 95 1009.0
20180919043357 75 287 3.0 4.0 0.00 0.02 0.00 94 1009.1
20180919042356 75 256 3.0 4.0 0.00 0.02 0.00 94 1009.1
20180919040356 75 283 3.0 4.0 0.00 0.02 0.00 93 1009.2
20180919035356 75 308 3.0 4.0 0.00 0.02 0.02 93 1009.3
20180919034356 75 311 3.0 4.0 0.00 0.02 0.02 92 1009.2
20180919033356 75 319 3.0 4.0 0.00 0.02 0.02 92 1009.2
20180919031356 76 317 3.0 4.0 0.00 0.02 0.02 92 1009.2
20180919025356 76 327 3.0 9.0 0.01 0.02 0.02 92 1009.2
20180919022356 75 43 3.0 9.0 0.01 0.02 0.02 93 1009.1
20180919011356 75 339 3.0 5.0 0.02 0.02 0.02 96 1008.8
20180919010356 75 310 3.0 4.0 0.01 0.01 0.01 95 1008.7
20180919005356 76 4 3.0 13.0 0.01 0.01 0.01 95 1008.4
20180919003356 77 359 3.0 9.0 0.00 0.00 0.00 94 1008.2
20180919002356 77 359 3.0 7.0 0.00 0.00 0.00 93 1008.1
20180918234356 80 263 3.0 5.0 0.00 0.00 0.00 85 1007.5
20180918233356 80 314 3.0 5.0 0.00 0.00 0.00 83 1007.5
20180918231356 81 270 3.0 4.0 0.00 0.00 0.00 79 1007.4
20180918230356 82 302 3.0 4.0 0.00 0.00 0.00 78 1007.4
20180918224356 82 262 3.0 6.0 0.00 0.00 0.00 76 1007.2
20180918220356 84 274 3.0 4.0 0.00 0.00 0.00 75 1007.1
20180918214357 84 283 3.0 10.0 0.00 0.00 0.00 74 1006.9
20180918202356 86 260 3.0 16.0 0.00 0.00 0.00 67 1006.8
20180918200356 87 217 3.0 8.0 0.00 0.00 0.00 67 1006.6
20180918195356 88 139 3.0 19.0 0.00 0.00 0.00 68 1006.6
20180918194356 88 238 3.0 19.0 0.00 0.00 0.00 66 1006.6
20180918193356 88 200 3.0 15.0 0.00 0.00 0.00 65 1006.6
20180918192356 88 159 3.0 15.0 0.00 0.00 0.00 68 1006.6
20180918190356 88 215 4.0 12.0 0.00 0.00 0.00 66 1006.9
20180918185356 88 52 3.0 17.0 0.00 0.00 0.00 66 1006.9
20180918184356 88 194 3.0 17.0 0.00 0.00 0.00 68 1007.0
20180918181356 88 219 3.0 13.0 0.00 0.00 0.00 71 1007.2
20180918180356 87 157 3.0 7.0 0.00 0.00 0.00 71 1007.4
20180918175356 88 169 3.0 16.0 0.00 0.00 0.00 70 1007.5
20180918174356 87 280 3.0 16.0 0.00 0.00 0.00 70 1007.6
20180918172356 88 214 3.0 14.0 0.00 0.00 0.00 66 1007.7
20180918170356 88 193 3.0 7.0 0.00 0.00 0.00 71 1007.9
20180918162357 86 215 3.0 13.0 0.00 0.00 0.00 74 1008.4